Showing default

SJ-23, 55131

Orbit data source: Space-Track

SJ-23, 55131 is a payload satellite owned by PLA SSF (CN) in GEO that was launched on Sun, 08 Jan 2023 UTC via a CHANG ZHENG 7A launch vehicle from the Wenchang Satellite Launch Center (WSC). Payload-class satellites include a variety of spacecraft equipped with specific instruments for various scientific and technological missions. These include communications satellites like Starlink; space stations such as the ISS; scientific satellites like the Hubble; Earth observation satellites from companies like Planet Labs, Umbra, and HawkEye 360; GPS; miniature CubeSats for education and research; and military/defense satellites.

Not visible in the next 10 days
Identifier
55131, 2023-002A
Orbit
GEO
Country
Flag of CNCN / PRC
Related business
Manufacturer
CAST?
Mission
Operational Civil Communications
Bus & Motor
DFH-4E?, DFH-4 LAE
Mass
~5,000 kg wet, ~2,500 kg dry
Launch date (UTC)
2023-01-08 (3 years ago)
Launch vehicle
CHANG ZHENG 7A
Launch site
Wenchang Satellite Launch Center (WSC)
Object type
Payload
Rocket body
Debris
Shape & HBR
Box + 2 Pan, 15.0 m
Radar Cross Section
34.063 m², Large (>1 m²)

Expand to show TLE details & history
Last TLE update: 2 days ago

TLE from 2 days ago
0 SJ-23
1 55131U 23002A   26171.49181124 -.00000272  00000-0  00000+0 0  9990
2 55131   3.7270  78.2744 0003795 275.1369 238.2597  1.00087098 12546
Epoch: 2026-06-20T11:48Z
TLE epoch observation values (Epoch: 2026-06-20T11:48:12.491Z)
Latitude
1.65803°
Longitude
145.94185°
Altitude
35,846.123 km
Speed
3.072 km/s
True Right ascension
15h 26m 47s
True Declination
1° 39' 23"
Sunlit
Object was in daylight at epoch
Visualization orbit readout
Latitude
Unknown
Longitude
Unknown
Altitude
Unknown
Speed
Unknown
Apparent Right ascension
Unknown
Apparent Declination
Unknown
Sunlit
N/A
Visualization observer readout
Local Sidereal Time
21:41:11
Azimuth
Unknown
Elevation
Unknown
Doppler factor
Unknown
Orbital elements
Apogee altitude
35,855.533 km
Perigee altitude
35,823.49 km
Semi-major axis
42,217.649 km
Eccentricity
0.00038
Inclination
3.727°
RAAN
78.2744°
Arg. of periapsis
275.1369°
True anomaly
238.22273°
Mean anomaly
238.2597°
Eccentric anomaly
238.24121°
Mean motion
0.25021 °/min
Orbital period
1,438.8 mins
BSTAR
0
Loading maneuver chart data...
Computing Atmospheric mass density...
Loading historical data...
Loading historical data...
Loading historical data...
Loading historical data...
Loading historical data...
Loading historical data...
Loading historical data...
Other satellites on launch #2 in the year 2023 (2023-01-08 UTC)

Documentation

Showing up to 5 results
|